WM1R Weather Reports


time (UTC)temp
F
wind
direction
speed
knots
gust
knots
rain 1hr
in
rain 24hr
in
rain mn
in
humidity
%
barometer
mb
20260510193019 59 219 1.7 14.8 0.00 0.02 0.02 73 1014.6
20260510191532 57 312 3.5 8.7 0.00 0.02 0.02 74 1014.6
20260510190032 56 281 2.6 8.7 0.00 0.03 0.02 76 1014.9
20260510184528 57 185 4.3 8.7 0.00 0.05 0.02 76 1014.7
20260510183012 56 288 2.6 7.8 0.00 0.06 0.02 78 1014.7
20260510181518 56 227 3.5 11.3 0.00 0.08 0.02 80 1014.7
20260510180024 55 265 1.7 8.7 0.01 0.09 0.02 83 1014.9
20260510174526 55 235 1.7 6.1 0.01 0.10 0.02 84 1014.7
20260510173028 54 313 1.7 5.2 0.01 0.12 0.02 89 1015.0
20260510171524 53 203 2.6 12.2 0.01 0.13 0.02 86 1015.0
20260510170021 55 232 2.6 13.0 0.00 0.13 0.01 79 1015.1
20260510164506 55 208 7.0 13.0 0.00 0.15 0.01 79 1015.0
20260510163010 55 214 1.7 6.1 0.00 0.16 0.01 83 1014.8
20260510161516 55 187 1.7 7.0 0.00 0.17 0.01 83 1014.7
20260510160029 54 183 1.7 7.0 0.00 0.17 0.01 84 1014.7
20260510154504 55 329 2.6 5.2 0.00 0.17 0.01 80 1014.7
20260510153007 55 196 1.7 9.6 0.00 0.18 0.01 79 1014.6
20260510151518 56 30 0.9 7.0 0.00 0.18 0.01 82 1014.1
20260510150018 55 147 1.7 7.0 0.00 0.18 0.01 79 1014.1
20260510144510 56 205 2.6 7.8 0.00 0.18 0.01 78 1014.1
20260510143009 56 73 3.5 9.6 0.00 0.18 0.01 82 1014.0
20260510141514 55 160 3.5 7.8 0.00 0.18 0.01 83 1014.3
20260510140021 53 195 2.6 10.4 0.00 0.18 0.01 87 1014.3
20260510134520 53 164 3.5 7.8 0.00 0.18 0.01 86 1014.3
20260510133005 52 194 0.9 7.0 0.00 0.18 0.01 92 1014.3
20260510131507 51 110 2.6 7.0 0.00 0.18 0.01 94 1013.9
20260510130014 50 90 2.6 6.1 0.00 0.18 0.01 96 1013.9
20260510124518 49 211 3.5 5.2 0.00 0.18 0.01 95 1014.1
20260510123024 49 108 3.5 7.8 0.00 0.18 0.01 97 1013.9
20260510121508 49 165 1.7 3.5 0.00 0.18 0.01 97 1014.0
20260510120010 48 99 0.0 5.2 0.00 0.18 0.01 98 1013.9
20260510114521 47 71 0.9 3.5 0.00 0.18 0.01 97 1013.6
20260510113029 47 83 0.0 4.3 0.00 0.18 0.01 97 1013.8
20260510111526 46 170 2.6 5.2 0.00 0.18 0.01 97 1013.7
20260510110008 46 67 0.0 0.9 0.00 0.18 0.01 97 1013.7
20260510104512 46 224 0.0 1.7 0.00 0.18 0.01 97 1013.3
20260510103018 46 202 0.9 2.6 0.00 0.18 0.01 97 1013.0
20260510101523 46 208 0.0 4.3 0.00 0.18 0.01 97 1012.5
20260510100024 45 263 1.7 6.1 0.00 0.18 0.01 97 1012.2
20260510094513 45 229 0.9 3.5 0.00 0.18 0.01 97 1012.1
20260510093017 45 162 1.7 3.5 0.00 0.18 0.01 97 1012.0
20260510091526 44 119 0.9 2.6 0.00 0.18 0.01 97 1011.9
20260510090026 45 170 0.0 1.7 0.00 0.18 0.01 97 1012.3
20260510083015 45 111 0.9 3.5 0.00 0.18 0.01 97 1012.6
20260510081529 45 183 1.7 4.3 0.00 0.18 0.01 97 1012.9
20260510080040 44 209 0.9 4.3 0.00 0.18 0.01 97 1012.7
20260510074526 44 156 1.7 3.5 0.00 0.18 0.01 97 1012.7
20260510073025 43 78 0.0 1.7 0.00 0.18 0.01 97 1012.5
20260510071519 43 96 0.9 3.5 0.00 0.18 0.01 97 1012.6
20260510070022 43 336 0.0 2.6 0.00 0.18 0.01 97 1012.7
20260510064524 43 59 0.0 2.6 0.00 0.18 0.01 97 1012.8
20260510063034 42 44 0.9 2.6 0.01 0.18 0.01 97 1012.7
20260510061517 42 37 0.0 1.7 0.01 0.18 0.01 97 1013.0
20260510060034 42 360 0.0 1.7 0.01 0.18 0.01 97 1013.0
20260510054526 42 19 0.0 2.6 0.01 0.18 0.01 97 1013.0
20260510053025 42 50 0.9 2.6 0.00 0.17 0.00 97 1013.0
20260510051512 42 15 0.9 3.5 0.00 0.17 0.00 97 1012.9
20260510050018 42 136 0.9 2.6 0.00 0.17 0.00 97 1013.3
20260510044500 42 61 0.9 3.5 0.00 0.17 0.00 97 1013.1
20260510043009 42 22 0.9 7.8 0.00 0.17 0.00 97 1013.2
20260510041510 42 233 0.9 5.2 0.00 0.17 0.00 97 1013.1
20260510040016 42 46 2.6 7.0 0.00 0.17 0.00 97 1013.0
20260510034522 42 75 1.7 7.8 0.00 0.17 0.17 97 1013.0
20260510033003 42 147 3.5 10.4 0.00 0.17 0.17 97 1013.0
20260510031509 42 117 1.7 7.8 0.00 0.17 0.17 97 1013.1
20260510030016 42 238 0.9 12.2 0.00 0.17 0.17 97 1013.3
20260510024516 42 38 1.7 6.1 0.00 0.17 0.17 97 1013.2
20260510023023 42 67 2.6 8.7 0.00 0.17 0.17 96 1013.5
20260510021514 42 65 2.6 7.0 0.00 0.17 0.17 96 1013.7
20260510020010 42 67 0.9 7.8 0.00 0.17 0.17 96 1013.6
20260510014531 42 54 2.6 7.0 0.00 0.17 0.17 96 1013.7
20260510013020 42 70 2.6 7.0 0.00 0.17 0.17 96 1013.7
20260510011524 42 114 4.3 7.0 0.00 0.17 0.17 96 1013.8
20260510010020 42 74 3.5 7.8 0.00 0.17 0.17 96 1013.9
20260510004512 42 130 1.7 7.8 0.00 0.17 0.17 96 1013.8
20260510003023 42 44 3.5 7.8 0.00 0.17 0.17 96 1013.4
20260510001522 42 56 3.5 7.8 0.00 0.17 0.17 96 1013.4
20260510000004 42 51 2.6 7.8 0.00 0.17 0.17 96 1013.2
20260509234510 42 111 2.6 11.3 0.00 0.17 0.17 96 1013.0
20260509233013 42 92 2.6 8.7 0.00 0.17 0.17 96 1013.0
20260509231519 42 93 4.3 8.7 0.00 0.17 0.17 95 1013.1
20260509230035 42 59 3.5 8.7 0.00 0.17 0.17 95 1013.3
20260509224507 42 67 3.5 9.6 0.00 0.17 0.17 95 1013.3
20260509223011 42 183 1.7 9.6 0.00 0.17 0.17 95 1013.3
20260509221520 42 39 2.6 9.6 0.00 0.17 0.17 95 1013.4
20260509220022 42 128 2.6 9.6 0.00 0.17 0.17 95 1013.5
20260509214524 42 76 3.5 7.8 0.00 0.17 0.17 95 1013.6
20260509213017 42 14 2.6 6.1 0.00 0.17 0.17 95 1013.7
20260509211515 42 77 0.9 7.0 0.00 0.17 0.17 94 1013.8
20260509210021 42 107 0.9 8.7 0.00 0.17 0.17 94 1013.7
20260509204525 43 127 4.3 9.6 0.00 0.17 0.17 94 1013.7
20260509203028 43 102 2.6 7.8 0.00 0.17 0.17 94 1013.7
20260509201516 43 109 2.6 8.7 0.00 0.17 0.17 94 1013.7
20260509200016 43 59 2.6 8.7 0.01 0.17 0.17 94 1013.8
20260509194532 42 130 4.3 9.6 0.03 0.17 0.17 93 1013.9